Tracking 28052 objects as of 24-Sep-2023
HD Live streaming from Space Station
objects crossing your sky now

STARLINK-30175

Track STARLINK-30175 now!
10-day predictions
STARLINK-30175 is classified as:


NORAD ID: 57311
Int'l Code: 2023-096X
Perigee: 565.0 km
Apogee: 567.3 km
Inclination: 43.0 °
Period: 95.8 minutes
Semi major axis: 6937 km
RCS: Unknown
Launch date: July 10, 2023
Source: United States (US)
Launch site: AIR FORCE EASTERN TEST RANGE (AFETR)
Your satellite tracking list
Your tracking list is empty




NASA's NSSDC Master Catalog

Two Line Element Set (TLE):
1 57311U 23096X   23266.91747004  .00006278  00000-0  47908-3 0  9992
2 57311  43.0017  61.0115 0001631 283.9372  76.1288 15.02558624 11588
Source of the keplerian elements: AFSPC